Weather History for Lee's Summit, MO

Change the Weather History Date:

Monday, October 8, 2012

  Actual Average (KMKC) Record (KMKC)
Temperature  
Mean Temperature 49 °F -  
Max Temperature 61 °F 68 °F 87 °F (2010)
Min Temperature 37 °F 49 °F 30 °F (2000)
Degree Days  
Heating Degree Days 16    
Moisture  
Dew Point 32 °F    
Average Humidity 54    
Maximum Humidity 73    
Minimum Humidity 35    
Precipitation  
Precipitation 0.00 in - - ()
Sea Level Pressure  
Sea Level Pressure 30.08 in    
Wind  
Wind Speed 10 mph (SSW)    
Max Wind Speed 17 mph    
Max Gust Speed 25 mph    
Visibility 10 miles    
Events      
Averages and records for this station are not official NWS values.
T = Trace of Precipitation, MM = Missing Value Source: NWS Daily Summary

Daily Weather History Graph

Daily Weather History Graph

Search for Another Location

Airport:

Trip Planner

Search our weather history database for the weather conditions in past years. The results will help you decide how hot, cold, wet, or windy it might be!

Date:

Astronomy

Oct. 08, 2012 Rise Set
Actual Time 7:20 AM CDT 6:48 PM CDT
Civil Twilight 6:53 AM CDT 7:15 PM CDT
Nautical Twilight 6:22 AM CDT 7:46 PM CDT
Astronomical Twilight 5:51 AM CDT 8:16 PM CDT
Moon 12:04 AM CDT (10/8) 2:35 PM CDT (10/8)
Length of Visible Light 12h 21m
Length of Day
11h 27m
Last Quarter, 46% of the Moon is Illuminated
Oct 8
Last Quarter
Oct 15
New
Oct 21
First Quarter
Oct 29
Full
Nov 6
Last Quarter

Hourly Weather History & Observations

Time (CDT) Temp. Windchill Dew Point Humidity Pressure Visibility Wind Dir Wind Speed Gust Speed Precip Events Conditions
12:53 AM 42.1 °F 36.6 °F 28.0 °F 58% 30.16 in 10.0 mi SW 9.2 mph - N/A   Clear
1:53 AM 39.9 °F 33.9 °F 28.0 °F 63% 30.17 in 10.0 mi SSW 9.2 mph - N/A   Clear
2:53 AM 39.9 °F 35.1 °F 28.0 °F 63% 30.16 in 10.0 mi SSW 6.9 mph - N/A   Clear
3:53 AM 37.9 °F 32.7 °F 28.9 °F 70% 30.14 in 10.0 mi SSW 6.9 mph - N/A   Clear
4:53 AM 37.9 °F 32.7 °F 28.9 °F 70% 30.14 in 10.0 mi SSW 6.9 mph - N/A   Clear
5:53 AM 37.0 °F 31.0 °F 28.9 °F 73% 30.15 in 10.0 mi SSW 8.1 mph - N/A   Clear
6:53 AM 37.0 °F 31.6 °F 28.9 °F 73% 30.15 in - SSW 6.9 mph - N/A   Clear
7:53 AM 37.0 °F 31.6 °F 28.9 °F 73% 30.14 in - SSW 6.9 mph - N/A   Clear
8:53 AM 42.1 °F 37.1 °F 30.9 °F 65% 30.15 in - SSW 8.1 mph - N/A   Clear
9:53 AM 46.9 °F - 30.9 °F 54% 30.15 in - SW 11.5 mph - N/A   Clear
10:53 AM 52.0 °F - 32.0 °F 47% 30.13 in 10.0 mi SW 17.3 mph 21.9 mph N/A   Clear
11:53 AM 55.9 °F - 32.0 °F 40% 30.12 in 10.0 mi SW 17.3 mph 24.2 mph N/A   Clear
12:53 PM 57.9 °F - 32.0 °F 37% 30.10 in 10.0 mi SSW 16.1 mph 23.0 mph N/A   Clear
1:53 PM 61.0 °F - 33.1 °F 35% 30.07 in 10.0 mi SSW 17.3 mph 25.3 mph N/A   Clear
2:53 PM 61.0 °F - 34.0 °F 36% 30.03 in 10.0 mi SSW 16.1 mph 23.0 mph N/A   Clear
3:53 PM 60.1 °F - 34.0 °F 38% 30.01 in 10.0 mi South 16.1 mph 23.0 mph N/A   Clear
4:53 PM 60.1 °F - 34.0 °F 38% 30.00 in 10.0 mi South 15.0 mph 25.3 mph N/A   Clear
5:53 PM 59.0 °F - 34.0 °F 39% 29.99 in 10.0 mi SSW 15.0 mph 23.0 mph N/A   Clear
6:53 PM 55.9 °F - 34.0 °F 44% 29.99 in 10.0 mi South 10.4 mph - N/A   Clear
7:53 PM 54.0 °F - 35.1 °F 49% 30.00 in 10.0 mi South 6.9 mph - N/A   Clear
8:53 PM 53.1 °F - 36.0 °F 52% 30.00 in 10.0 mi South 11.5 mph 18.4 mph N/A   Clear
9:53 PM 52.0 °F - 36.0 °F 54% 30.01 in 10.0 mi South 12.7 mph 20.7 mph N/A   Clear
10:53 PM 51.1 °F - 36.0 °F 56% 30.00 in 10.0 mi South 12.7 mph 20.7 mph N/A   Clear
11:53 PM 51.1 °F - 37.0 °F 59% 29.99 in 10.0 mi SSW 13.8 mph 21.9 mph N/A   Clear